www.pogodaiklimat.ru

Погода и климат >> Архив погоды >> Россия >> Якутия >> Чумпурук


АРХИВ ПОГОДЫ в Чумпуруке

Время (UTC), дата Ветер
(напр.,м/с)
 
Видим.   Явления Облачность Т
(С)
Тd
(С)
f
(%)
Тe
(С)
Тes
(С)
Комфортность P
(гПа)
Po
(гПа)
Тmin
(С)
Tmax
(С)
R
(мм)
R24
(мм)
S
(см)
06 17.07 СЗ 2
{11}
50 км {гроза, ливн. осадки} 8/3 600 м
[Cb cap Ac cast Ci ing]
+24.4 +18.8 71 +29 +34 душно 1003.4 987.6
12 17.07 С 4-11
{12}
50 км 8/8 600 м
[Sc]
+16.5 +11.9 74 +16 +16 1008.8 992.5 +29.6 2
18 17.07 С 3
{10}
50 км ясно +12.3 +8.3 77 +11 +11 1011.9 995.2
00 18.07 С 3-10
{11}
50 км 1/1 1000 м
[Cu hum]
+11.6 +5.1 64 +10 +14 1013.3 996.6 +10.0
06 18.07 С 3-10
{11}
50 км 3/3 1000 м
[Cu hum]
+17.0 +5.4 46 +17 +23 1013.4 997.1
12 18.07 С 2
{10}
50 км 4/4 1000 м
[Sc]
+15.8 +3.7 44 +16 +16 1015.4 998.9 +18.9
18 18.07 С 1 50 км ясно +9.0 +2.4 63 +9 +9 1017.5 1000.5
00 19.07 С 2 50 км 4/3 600 м
[Cu hum Ci fib]
+13.0 +6.1 63 +12 +16 1018.2 1001.6 +7.6
06 19.07 С 2
{11}
50 км 8/6 600 м
[Sc diur, vesp Ci fib]
+18.3 +5.9 44 +19 +23 1017.9 1001.5
12 19.07 С 1
{10}
50 км 3/3 1000 м
[Sc diur, vesp]
+17.0 +4.3 43 +18 +18 1019.9 1003.3 +19.9
18 19.07 СЗ 2 50 км ясно +8.0 +6.3 89 +6 +6 1022.7 1005.6
00 20.07 С 1 50 км ясно +16.8 +5.1 46 +18 +24 1023.4 1006.8 +6.4
06 20.07 СВ 2 50 км ясно +21.7 +5.5 35 +22 +32 комфорт 1021.7 1005.4
12 20.07 В 1 50 км ясно +21.3 +4.3 33 +22 +22 комфорт 1020.6 1004.3 +22.1
18 20.07 СЗ 1 50 км ясно +8.0 +5.8 86 +7 +7 1022.4 1005.3
00 21.07 СЗ 1 50 км ясно +15.9 +8.7 62 +17 +23 1022.6 1006.0 +7.0
06 21.07 СЗ 1 50 км ясно +25.2 +6.4 30 +25 +37 комфорт 1019.1 1003.1
12 21.07 С 1 50 км ясно +26.1 +7.3 30 +26 +26 жарко 1016.7 1000.7 +27.0
18 21.07 СЗ 2 50 км ясно +11.8 +8.8 82 +11 +11 1017.4 1000.7
00 22.07 СЗ 1 50 км ясно +17.8 +10.5 62 +19 +25 1017.1 1000.7 +10.0
06 22.07 В 1 50 км 1/0
[Ci fib]
+29.4 +8.1 26 +29 +40 жарко 1014.0 998.2
12 22.07 В 1 50 км ясно +27.4 +9.9 33 +28 +28 жарко 1012.7 996.9 +30.5
18 22.07 штиль 0 50 км 1/0
[Ci fib]
+12.1 +10.6 91 +11 +11 1014.7 998.0
00 23.07 штиль 0 50 км ясно +19.2 +10.1 56 +20 +27 1014.7 998.4 +11.0
06 23.07 В 2 50 км ясно +28.2 +6.2 25 +27 +37 жарко 1011.6 995.8
12 23.07 В 1 50 км ясно +27.1 +4.2 23 +26 +26 жарко 1010.0 994.2 +28.9
18 23.07 штиль 0 10 км дым ясно +8.4 +7.6 95 +7 +7 1011.9 995.0
00 24.07 СЗ 1 4000 м мгла ясно +13.0 +8.4 74 +13 +19 1011.0 994.5 +6.5

 

Местоположение метеостанции Чумпурук (Якутия, Россия): широта 64.23 долгота 116.90 высота над уровнем моря 139 м.

В архиве по умолчанию представлена погода в Чумпуруке за последнюю неделю. Архивные данные за месяц целиком и за предыдущие месяцы, начиная с января 2011 года, Вы можете получить, выбрав интересующий диапазон дат из раскрывающегося списка и нажав кнопку "Ввод!".


*Определитесь, кто Вы:
робот инопланетянин человек

Внимание! Время в таблицах - всемирное. Для получения местного времени необходимо прибавить поправку, которая равна 9 ч.

Смотрите также архив погоды в соседних городах и на ближайших метеорологических станциях:

Погода в Нюрбе (Якутия, Россия) (126 км)
Погода в Верхневилюйске (Якутия, Россия) (184 км)
Погода в Эйке (Якутия, Россия) (202 км)
Погода в Хабардино (Якутия, Россия) (215 км)
Погода в Крестяхе (Якутия, Россия) (222 км)
Погода в Сунтаре (Якутия, Россия) (232 км)
Погода в Вилюйске (Якутия, Россия) (235 км)
Погода в Мирном (Якутия, Россия) (244 км)
Погода в Шелагонцах (Якутия, Россия) (257 км)
Погода в Чернышевском (Якутия, Россия) (259 км)

Пояснения к столбцам:

Ветер - указаны скорость ветра в м/с - средняя за 10 мин, порывы в срок и между сроками (в фигурных скобках) и направление, откуда дует ветер: С - северный, СВ - северо-восточный, В - восточный, ЮВ - юго-восточный, Ю - южный, ЮЗ - юго-западный, З - западный, СЗ - северо-западный.
Видимость - горизонтальная дальность видимости в метрах или километрах. При видимости от 1 до 10 км при отсутствии осадков обычно наблюдается дымка, при ухудшении видимости до 1 км и менее - туман. В сухую погоду видимость может ухудшаться дымом, пылью или мглою.
Явления - указаны атмосферные явления, наблюдавшиеся в срок или в последний час перед сроком; фигурными скобками обозначены явления, наблюдавшиеся между сроками (за 1-3 часа до срока); квадратными скобками обозначены град или гололедные отложения с указанием их диаметра в мм.
Облачность - указаны через наклонную черту общая и нижняя облачность в баллах и высота нижней границы облаков в метрах; квадратными скобками обозначены формы облаков: Ci - перистые, Cs - перисто-слоистые, Cc - перисто-кучевые, Ac - высококучевые, As - высокослоистые, Sc - слоисто-кучевые, Ns - слоисто-дождевые, Cu - кучевые, Cb - кучево-дождевые. Подробнее классификацию облаков см. в Атласе облаков (PDF).
T - Температура воздуха - температура, измеренная на высоте 2 м над землей.
Td - Температура точки росы - температура, при понижении до которой содержащийся в воздухе водяной пар достигнет насыщения.
f - Относительная влажность воздуха - влажноcть воздуха, измеренная на высоте 2 м над землей.
Te - Эффективная температура - температура, которую ощущает одетый по сезону человек в тени. Характеристика душности погоды. При расчете учитывается влияние влажности воздуха и скорости ветра на теплоощущения человека.
Tes - Эффективная температура на солнце - температура, которую ощущает человек, с поправкой на солнечный нагрев. Характеристика знойности погоды. Зависит от высоты солнца над горизонтом, облачности и скорости ветра. Ночью, в пасмурную погоду, а также при ветре 12 м/с и более поправка равна нулю.
P - Атмосферное давление - приведенное к уровню моря атмосферное давление.
Po - Атмосферное давление - измеренное на уровне метеостанции атмосферное давление.
Tmin - Минимальная температура - минимум температуры воздуха на высоте 2 м над землей.
Tmax - Максимальная температура - максимум температуры воздуха на высоте 2 м над землей.
R - Количество осадков - Количество выпавших осадков за период времени, мм. При наведении курсора мыши на число - период времени, за который выпало указанное количество осадков.
R24 - Количество осадков - Количество выпавших осадков за 24 часа, мм.
S - Снежный покров - Высота снежного покрова, см. При наведении курсора мыши на число - состояние снежного покрова и степень покрытия местности в баллах.